This is the latest recevied weather packets stored in our database for station/object KI7YRV. If no packets are shown the sender has not sent any weather packets the latest 10 day(s).
| Time | Temp. | Humidity | Pressure | Rain* | Wind** | Luminosity | Snow |
|---|---|---|---|---|---|---|---|
| 1777743632 | 18.89° C | 24% | 1022.5 hPa | 0 mm | - | - | - |
| 1777739426 | 16.11° C | 34% | 1023 hPa | 0 mm | - | - | - |
| 1777738830 | 15.56° C | 35% | 1023 hPa | 0 mm | - | - | - |
| 1777735816 | 12.22° C | 40% | 1023.3 hPa | 0 mm | - | - | - |
| 1777734624 | 11.11° C | 43% | 1023.5 hPa | 0 mm | - | - | - |
| 1777734023 | 10.56° C | 44% | 1023.5 hPa | 0 mm | - | - | - |
| 1777733415 | 10° C | 45% | 1023.7 hPa | 0 mm | - | - | - |
| 1777726826 | 3.89° C | 58% | 1023.2 hPa | 0 mm | - | - | - |
| 1777717840 | 2.22° C | 67% | 1023.4 hPa | 0 mm | - | - | - |
| 1777714823 | 3.89° C | 60% | 1023.3 hPa | 0 mm | - | - | - |
| 1777707026 | 5.56° C | 51% | 1023.6 hPa | 0 mm | - | - | - |
| 1777701629 | 6.67° C | 44% | 1023.6 hPa | 0 mm | - | - | - |
| 1777698615 | 8.33° C | 38% | 1023.5 hPa | 0 mm | - | - | - |
| 1777693832 | 10° C | 33% | 1023.1 hPa | 0 mm | - | - | - |
| 1777690818 | 11.67° C | 31% | 1022.6 hPa | 0 mm | - | - | - |
| 1777689621 | 11.67° C | 31% | 1022.3 hPa | 0 mm | - | - | - |
| 1777684826 | 17.22° C | 24% | 1021.8 hPa | 0 mm | - | - | - |
| 1777683617 | 18.33° C | 23% | 1022 hPa | 0 mm | - | - | - |
| 1777681830 | 18.89° C | 23% | 1022 hPa | 0 mm | - | - | - |
| 1777679449 | 18.89° C | 24% | 1022 hPa | 0 mm | - | - | - |
| 1777676415 | 18.33° C | 24% | 1022 hPa | 0 mm | - | - | - |
| 1777674034 | 18.89° C | 24% | 1022.2 hPa | 0 mm | - | - | - |
| 1777669827 | 18.33° C | 25% | 1023 hPa | 0 mm | - | - | - |
| 1777669225 | 18.33° C | 26% | 1023.1 hPa | 0 mm | - | - | - |
| 1777662029 | 16.67° C | 27% | 1023.5 hPa | 0 mm | - | - | - |
* Rain latest hour (hover to see other rain measurements)
** Current wind speed in m/s (hover to see current wind gust speed)